Weather History for KSUE - January, 2014

Change the Weather History Date:

Tuesday, January 14, 2014

  Actual Average Record
Temperature  
Mean Temperature 24 °F -  
Max Temperature 30 °F 25 °F 44 °F (1932)
Min Temperature 15 °F 9 °F -23 °F (1929)
Degree Days  
Heating Degree Days 42    
Moisture  
Dew Point 20 °F    
Average Humidity 83    
Maximum Humidity 93    
Minimum Humidity 64    
Precipitation  
Precipitation 0.00 in - - ()
Sea Level Pressure  
Sea Level Pressure 29.64 in    
Wind  
Wind Speed 11 mph (NE)    
Max Wind Speed 33 mph    
Max Gust Speed 45 mph    
Visibility 4 miles    
Events      
Averages and records for this station are not official NWS values.
T = Trace of Precipitation, MM = Missing Value Source: NWS Daily Summary

Daily Weather History Graph

Daily Weather History Graph

Search for Another Location

Airport or City:

Trip Planner

Search our weather history database for the weather conditions in past years. The results will help you decide how hot, cold, wet, or windy it might be!

Date:

Astronomy

Jan. 14, 2014 Rise Set
Actual Time 7:24 AM CST 4:33 PM CST
Civil Twilight 6:51 AM CST 5:06 PM CST
Nautical Twilight 6:15 AM CST 5:42 PM CST
Astronomical Twilight 5:40 AM CST 6:17 PM CST
Moon 3:40 PM CST (1/14) 5:57 AM CST (1/14)
Length of Visible Light 10h 14m
Length of Day
9h 09m
Waxing Gibbous, 98% of the Moon is Illuminated
Jan 14
Waxing Gibbous
Jan 15
Full
Jan 23
Last Quarter
Jan 30
New
Feb 6
First Quarter

Hourly Weather History & Observations

Time (CST) Temp. Windchill Dew Point Humidity Pressure Visibility Wind Dir Wind Speed Gust Speed Precip Events Conditions
12:15 AM 28.4 °F 20.4 °F 17.6 °F 64% 29.64 in 10.0 mi WSW 8.1 mph - N/A   Overcast
12:35 AM 26.6 °F 19.1 °F 17.6 °F 69% 29.64 in 10.0 mi WSW 6.9 mph - N/A   Scattered Clouds
12:55 AM 26.6 °F 19.1 °F 15.8 °F 64% 29.65 in 10.0 mi WSW 6.9 mph - N/A   Clear
1:15 AM 26.6 °F 18.2 °F 15.8 °F 64% 29.65 in 10.0 mi WSW 8.1 mph - N/A   Clear
1:35 AM 26.6 °F 19.1 °F 15.8 °F 64% 29.66 in 10.0 mi WSW 6.9 mph - N/A   Clear
1:55 AM 26.6 °F 22.6 °F 15.8 °F 64% 29.66 in 10.0 mi WSW 3.5 mph - N/A   Mostly Cloudy
2:15 AM 26.6 °F - 15.8 °F 64% 29.66 in 10.0 mi Calm Calm - N/A   Scattered Clouds
2:35 AM 24.8 °F - 15.8 °F 69% 29.67 in 10.0 mi Calm Calm - N/A   Partly Cloudy
2:55 AM 24.8 °F 17.9 °F 15.8 °F 69% 29.65 in 10.0 mi SW 5.8 mph - N/A   Mostly Cloudy
3:15 AM 24.8 °F 19.1 °F 17.6 °F 74% 29.65 in 10.0 mi SSW 4.6 mph - N/A   Overcast
3:35 AM 24.8 °F 17.9 °F 17.6 °F 74% 29.65 in 10.0 mi SW 5.8 mph - N/A   Overcast
3:55 AM 24.8 °F 16.9 °F 17.6 °F 74% 29.65 in 10.0 mi SSW 6.9 mph - N/A   Overcast
4:15 AM 24.8 °F 17.9 °F 15.8 °F 69% 29.64 in 10.0 mi SW 5.8 mph - N/A   Overcast
4:35 AM 24.8 °F 19.1 °F 17.6 °F 74% 29.65 in 10.0 mi SSW 4.6 mph - N/A   Overcast
4:55 AM 23.0 °F 17.0 °F 17.6 °F 80% 29.64 in 10.0 mi South 4.6 mph - N/A   Overcast
5:15 AM 24.8 °F 19.1 °F 17.6 °F 74% 29.64 in 10.0 mi SSW 4.6 mph - N/A   Overcast
5:35 AM 24.8 °F - 17.6 °F 74% 29.64 in 10.0 mi Calm Calm - N/A   Overcast
5:55 AM 24.8 °F - 17.6 °F 74% 29.64 in 10.0 mi Calm Calm - N/A   Overcast
6:15 AM 24.8 °F - 17.6 °F 74% 29.64 in 9.0 mi Calm Calm - N/A   Overcast
6:35 AM 24.8 °F - 17.6 °F 74% 29.65 in 10.0 mi Calm Calm - N/A   Overcast
6:55 AM 24.8 °F 20.5 °F 17.6 °F 74% 29.65 in 10.0 mi ESE 3.5 mph - N/A   Overcast
7:15 AM 24.8 °F 20.5 °F 17.6 °F 74% 29.64 in 6.0 mi ENE 3.5 mph - N/A   Overcast
7:35 AM 24.8 °F 19.1 °F 19.4 °F 80% 29.64 in 2.5 mi ENE 4.6 mph - N/A   Overcast
7:55 AM 24.8 °F 17.9 °F 21.2 °F 86% 29.65 in 2.0 mi East 5.8 mph - N/A   Overcast
8:15 AM 24.8 °F 17.9 °F 21.2 °F 86% 29.64 in 2.0 mi ENE 5.8 mph - N/A   Overcast
8:35 AM 24.8 °F 16.1 °F 21.2 °F 86% 29.63 in 2.5 mi ENE 8.1 mph - N/A   Overcast
8:55 AM 26.6 °F 18.2 °F 23.0 °F 86% 29.63 in 2.0 mi East 8.1 mph - N/A   Overcast
9:15 AM 26.6 °F 18.2 °F 24.8 °F 93% 29.62 in 2.0 mi East 8.1 mph - N/A   Overcast
9:35 AM 26.6 °F 17.5 °F 24.8 °F 93% 29.62 in 1.5 mi East 9.2 mph - N/A   Overcast
9:55 AM 28.4 °F 18.5 °F 24.8 °F 86% 29.61 in 1.2 mi East 11.5 mph - N/A   Overcast
10:15 AM 28.4 °F 18.0 °F 26.6 °F 93% 29.60 in 1.5 mi East 12.7 mph 18.4 mph N/A   Overcast
10:35 AM 28.4 °F 19.1 °F 26.6 °F 93% 29.60 in 0.8 mi East 10.4 mph - N/A   Overcast
10:55 AM 28.4 °F 21.2 °F 26.6 °F 93% 29.61 in 1.0 mi East 6.9 mph - N/A   Overcast
11:15 AM 28.4 °F 17.5 °F 26.6 °F 93% 29.60 in 0.5 mi East 13.8 mph 19.6 mph N/A   Overcast
11:35 AM 28.4 °F 17.0 °F 26.6 °F 93% 29.59 in 0.8 mi East 15.0 mph 20.7 mph N/A   Overcast
11:55 AM 28.4 °F 18.5 °F 26.6 °F 93% 29.57 in 1.2 mi East 11.5 mph 19.6 mph N/A   Overcast
12:15 PM 28.4 °F 20.4 °F 26.6 °F 93% 29.56 in 1.5 mi East 8.1 mph 16.1 mph N/A   Overcast
12:35 PM 28.4 °F 18.0 °F 26.6 °F 93% 29.55 in 1.5 mi East 12.7 mph 24.2 mph N/A   Overcast
12:55 PM 28.4 °F 19.7 °F 26.6 °F 93% 29.55 in 1.5 mi East 9.2 mph 17.3 mph N/A   Overcast
1:15 PM 28.4 °F 17.0 °F 26.6 °F 93% 29.54 in 2.0 mi ENE 15.0 mph 18.4 mph N/A   Overcast
1:35 PM 28.4 °F 18.0 °F 26.6 °F 93% 29.54 in 6.0 mi East 12.7 mph - N/A   Overcast
1:55 PM 28.4 °F 18.5 °F 26.6 °F 93% 29.55 in 5.0 mi ENE 11.5 mph 17.3 mph N/A   Overcast
2:15 PM 30.2 °F 20.2 °F 26.6 °F 86% 29.54 in 3.0 mi ENE 12.7 mph 20.7 mph N/A   Overcast
2:35 PM 30.2 °F 20.2 °F 28.4 °F 93% 29.54 in 2.5 mi NE 12.7 mph 16.1 mph N/A   Overcast
2:55 PM 30.2 °F 19.3 °F 26.6 °F 86% 29.54 in 2.0 mi NE 15.0 mph - N/A   Overcast
3:15 PM 30.2 °F 17.1 °F 26.6 °F 86% 29.54 in 1.0 mi NE 21.9 mph 27.6 mph N/A   Overcast
3:35 PM 26.6 °F 13.8 °F 24.8 °F 93% 29.56 in 0.5 mi NE 17.3 mph 26.5 mph N/A   Overcast
3:55 PM 26.6 °F 12.0 °F 24.8 °F 93% 29.57 in 0.8 mi NNE 23.0 mph 27.6 mph N/A   Overcast
4:15 PM 24.8 °F 10.7 °F 21.2 °F 86% 29.59 in 0.5 mi NNE 19.6 mph 26.5 mph N/A   Overcast
4:35 PM 24.8 °F 9.6 °F 21.2 °F 86% 29.60 in 0.5 mi North 23.0 mph 27.6 mph N/A   Overcast
4:55 PM 21.2 °F 3.0 °F 19.4 °F 93% 29.60 in 0.5 mi North 29.9 mph 38.0 mph N/A   Overcast
5:15 PM 21.2 °F 3.0 °F 17.6 °F 86% 29.61 in 0.5 mi North 29.9 mph 38.0 mph N/A   Overcast
5:35 PM 21.2 °F 3.0 °F 17.6 °F 86% 29.62 in 0.5 mi North 29.9 mph 36.8 mph N/A   Overcast
5:55 PM 21.2 °F 2.2 °F 17.6 °F 86% 29.63 in 0.5 mi North 33.4 mph 39.1 mph N/A   Overcast
6:15 PM 21.2 °F 2.4 °F 17.6 °F 86% 29.63 in 0.2 mi North 32.2 mph 44.9 mph N/A   Overcast
6:35 PM 21.2 °F 2.4 °F 17.6 °F 86% 29.65 in 0.2 mi North 32.2 mph 43.7 mph N/A   Overcast
6:55 PM 19.4 °F 0.2 °F 17.6 °F 93% 29.66 in 0.2 mi North 31.1 mph 38.0 mph N/A   Overcast
7:15 PM 19.4 °F 0.8 °F 15.8 °F 86% 29.67 in 0.5 mi North 28.8 mph 36.8 mph N/A   Overcast
7:35 PM 19.4 °F 0.8 °F 15.8 °F 86% 29.68 in 0.2 mi North 28.8 mph 38.0 mph N/A   Overcast
7:55 PM 19.4 °F 0.5 °F 15.8 °F 86% 29.69 in 0.5 mi North 29.9 mph 38.0 mph N/A   Overcast
8:15 PM 19.4 °F 0.8 °F 15.8 °F 86% 29.69 in 0.5 mi North 28.8 mph 38.0 mph N/A   Overcast
8:35 PM 19.4 °F 1.8 °F 15.8 °F 86% 29.70 in 0.5 mi North 25.3 mph 33.4 mph N/A   Overcast
8:55 PM 19.4 °F 1.1 °F 15.8 °F 86% 29.72 in 0.8 mi North 27.6 mph 35.7 mph N/A   Overcast
9:15 PM 17.6 °F -1.0 °F 15.8 °F 93% 29.73 in 0.8 mi North 26.5 mph 33.4 mph N/A   Overcast
9:35 PM 17.6 °F -1.0 °F 15.8 °F 93% 29.73 in 1.0 mi NNW 26.5 mph 33.4 mph N/A   Overcast
9:55 PM 17.6 °F -0.3 °F 15.8 °F 93% 29.74 in 1.0 mi NNW 24.2 mph 34.5 mph N/A   Overcast
10:15 PM 17.6 °F -0.6 °F 14.0 °F 86% 29.75 in 1.0 mi NNW 25.3 mph 32.2 mph N/A   Overcast
10:35 PM 17.6 °F -0.3 °F 12.2 °F 79% 29.76 in 1.0 mi NNW 24.2 mph 31.1 mph N/A   Overcast
10:55 PM 17.6 °F 0.1 °F 12.2 °F 79% 29.76 in 1.2 mi NNW 23.0 mph 32.2 mph N/A   Overcast
11:15 PM 17.6 °F 0.1 °F 12.2 °F 79% 29.76 in 1.5 mi NNW 23.0 mph 32.2 mph N/A   Overcast
11:35 PM 17.6 °F 0.9 °F 12.2 °F 79% 29.77 in 1.8 mi NNW 20.7 mph 29.9 mph N/A   Overcast
11:55 PM 15.8 °F -1.5 °F 12.2 °F 86% 29.77 in 2.5 mi NNW 20.7 mph 27.6 mph N/A   Overcast